STARLINK-35356, 65836

Orbit data source: Space-Track

STARLINK-35356, 65836 is a payload satellite owned by SpaceX/Seattle (US) in LEO that was launched on Mon, 29 Sep 2025 UTC via an FALCON 9 launch vehicle from the Air Force Western Test Range (AFWTR). Payload-class satellites include a variety of spacecraft equipped with specific instruments for various scientific and technological missions. These include communications satellites like Starlink; space stations such as the ISS; scientific satellites like the Hubble; Earth observation satellites from companies like Planet Labs, Umbra, and HawkEye 360; GPS; miniature CubeSats for education and research; and military/defense satellites.

Loading next visibility...
Identifier
65836, 2025-221P
Orbit
LEO
Country
Flag of USUS
Related business
Manufacturer
SpaceX/Seattle
Mission
Operational spacecraft
Bus & Motor
STARLINK V2MO, Unknown motor
Mass
575 kg wet, ~530 kg dry
Launch date (UTC)
2025-09-29 (3 weeks ago)
Launch vehicle
FALCON 9
Launch site
Air Force Western Test Range (AFWTR)
Object type
Payload
Rocket body
Debris
Shape & HBR
Unknown shape, 17.7 m
Radar Cross Section
RCS unknown

Expand to show TLE details & history
Last TLE update: 13 hours ago

TLE from 13 hours ago
0 STARLINK-35356
1 65836U 25221P   25291.25003472 -.01647454  00000-0 -26571-1 0  9997
2 65836  53.1604  32.6267 0001190  68.9956  79.3678 15.55307785  4278
Epoch: 2025-10-18T06:00Z
TLE epoch observation values (Epoch: 2025-10-18T06:00:02.999Z)
Latitude
24.88059°
Longitude
75.41772°
Altitude
402.081 km
Speed
7.673 km/s
True Right ascension
12h 49m 39s
True Declination
24° 44' 34"
Sunlit
Object was in daylight at epoch
Visualization orbit readout
Latitude
Unknown
Longitude
Unknown
Altitude
Unknown
Speed
Unknown
Apparent Right ascension
Unknown
Apparent Declination
Unknown
Sunlit
N/A
Visualization observer readout
Local Sidereal Time
13:58:53
Azimuth
Unknown
Elevation
Unknown
Doppler factor
Unknown
Orbital elements
Apogee altitude
402.324 km
Perigee altitude
400.71 km
Semi-major axis
6,779.654 km
Eccentricity
0.00012
Inclination
53.1604°
RAAN
32.6267°
Arg. of periapsis
68.9956°
True anomaly
79.3812°
Mean anomaly
79.3678°
Eccentric anomaly
79.3745°
Mean motion
3.88805 °/min
Orbital period
92.59 mins
BSTAR
-0.026571
Loading maneuver chart data...
Computing Atmospheric mass density...
Loading historical data...
Loading historical data...
Loading historical data...
Loading historical data...
Loading historical data...
Loading historical data...
Loading historical data...

Documentation

Showing up to 5 results
|